CAPE
1529 1463 1496 1486 1580 1719 1508 1445 1732 1529 1694 2188 2522 2414 2312 2223 2325 2855 2488 1912 2312 2042 2129 2180 2439 2270 1784 1230 1389 1371 1474 1587 1529 1071 1360 1590 2753 3094 3035 3228 2689 2374 1444
1252 1580 1619 1961 1473 1321 1505 1386 1584 1777 1760 2231 2562 2653 1884 2067 2343 2809 2522 1827 2084 2018 2106 2298 2277 1799 2397 2246 1714 2038 2256 1851 1824 2123 2353 1695 2294 2674 2854 3275 2451 2064 2338
939 901 1089 1144 1337 1306 1329 1496 1512 1685 1714 1594 2152 2679 2509 1997 2479 2704 2806 2611 2252 2158 2030 2336 2164 2168 2358 1707 2038 1706 1784 2010 2003 1794 1721 1476 1841 2318 2645 3142 2566 2548 1621
852 1034 972 1118 1191 1215 1325 1497 1560 1689 1751 1607 1741 2129 2439 2242 2221 2629 2851 2927 2509 2219 2556 2584 2461 2028 2217 2657 2690 2752 2670 2512 2451 1920 1707 1654 1711 2015 2366 1785 1298 1197 1468
1012 1012 1119 1304 1221 1175 1010 1344 1569 1744 1783 1792 1622 1735 2020 2099 2058 2685 2802 2754 2773 2827 2645 2881 2699 2276 1562 1750 1908 3297 3140 2591 1960 1619 1594 1625 1504 1441 2242 1277 1240 1176 1682
1085 1131 1348 1323 1428 1536 1371 913 1540 1710 1871 1904 1837 1567 1464 1071 711 949 1445 2482 2715 2907 2846 2710 2816 1939 1758 1525 1381 1255 1139 2485 2457 1458 905 1103 2587 2097 1365 1172 1208 1170 1152
630 1292 1071 1228 1556 1589 1630 1713 1629 1616 1827 2012 1881 1821 2002 1833 472 215 378 1364 1664 2304 2591 2520 2251 1765 2227 2503 951 638 263 114 311 2535 2549 2507 2785 2380 2927 2513 3255 2171 2058
0 1 1 792 1255 1785 1875 1919 1810 1760 1743 1767 1803 2166 2026 2089 942 265 7 1189 1661 2223 2546 2458 2841 2943 2154 1970 2364 2340 2574 2493 2101 1630 1786 2127 2629 2476 2898 3027 3078 3046 2594
0 4 4 4 73 901 1664 1784 2092 2052 1948 1756 1710 1868 2180 2253 989 184 0 1089 995 1962 2210 2732 2994 3265 2457 1758 2326 2825 2685 2561 1161 1820 1676 1520 1191 1078 1107 1730 1475 1260 812
5 6 9 14 8 5 389 1382 1805 2011 1708 1780 1731 1766 1478 1930 1439 239 0 917 1007 1029 1922 2599 1567 1794 1911 1431 2445 2882 2986 2624 1323 1241 1589 966 319 1202 114 1174 1830 1580 968
3 3 1 5 17 12 9 126 1172 2150 2633 2414 1956 2210 2285 1782 1747 275 0 974 1031 1136 1147 1217 1270 488 471 221 199 2911 2400 2065 1159 977 843 854 920 996 1703 1963 2196 1950 1165
4 2 3 2 0 8 27 55 61 546 976 2030 2298 2789 2252 2724 1476 1117 0 7 671 1321 1518 1310 1623 1055 0 0 0 310 744 348 644 138 88 139 259 369 325 983 3477 3207 2328
5 5 2 2 0 0 5 9 55 138 575 1339 1834 1775 2659 2179 2539 1127 99 0 0 133 1356 1310 1144 142 7 0 0 2 0 503 686 657 490 427 337 314 1420 1880 3273 3945 3812
6 9 2 0 0 0 0 0 1 1 4 153 528 1684 1920 2522 2788 2149 1306 126 11 2 30 126 565 709 717 901 843 101 123 761 844 927 754 492 584 563 638 815 940 980 1363
6 8 2 0 0 0 0 0 0 0 0 2 11 52 368 1248 2355 0 6 2231 2533 1177 622 1012 1192 1215 1376 1602 1673 1577 1553 1243 1047 1120 1144 1122 1113 1100 1081 1034 892 902 994
39 7 0 0 0 0 0 0 0 0 0 0 0 0 0 0 0 0 0 1 2 367 673 1356 1737 1844 1904 1948 2036 2030 1928 1478 1696 1470 1340 1260 1186 1184 1168 1086 994 940 1123
5 34 15 3 2 0 0 0 0 0 0 0 0 0 0 0 0 0 2 0 0 1 1122 1680 1903 1949 2197 2345 2366 2130 2111 2096 2692 2156 2109 1836 1491 1288 1118 1053 963 1231 1427
7 0 15 21 8 2 1 0 0 0 0 0 0 0 0 0 0 0 1 0 1 1 868 1569 1881 2149 2199 1911 1737 1950 2022 2044 2376 2603 2126 2026 2047 1575 1301 1247 1259 1593 1547
25 17 17 22 22 9 3 2 0 0 0 0 0 0 0 0 0 2 1 5 36 821 567 1221 1786 1897 2406 2487 2617 2423 2907 2782 2961 2876 2450 2418 2485 2010 1659 1514 1437 1088 1381
37 20 23 21 14 17 16 7 4 2 1 0 0 0 0 1 13 81 1 2 5 359 1588 1634 1686 1932 2501 2748 2787 2746 3001 2690 2716 2644 2791 2593 2497 2491 2637 2242 2220 2188 2804
23 37 21 38 27 21 16 9 7 10 6 6 2 0 0 0 3 10 38 280 209 478 963 1742 2334 2617 2563 2863 3403 3448 2752 2934 2597 2493 2656 2661 2546 1995 1926 1842 2035 2351 2160
40 28 23 21 20 18 15 13 7 11 7 1 5 0 0 3 1 4 7 56 301 723 1088 1246 1282 892 891 1667 2497 3003 2566 2343 2277 1850 1929 2203 2393 1872 1718 1740 1719 1598 1436
34 27 23 26 33 25 28 10 8 3 9 7 7 7 8 3 3 9 12 37 4 2 1 2 2 1 1 1 1 1 3 406 614 364 1178 1667 1671 1506 1326 715 468 288 290
17 21 30 25 26 24 22 25 7 8 13 12 11 10 14 16 9 7 5 4 4 3 2 2 1 1 0 0 0 3 6 0 3 3 1 2 17 42 58 7 7 4 2
14 14 16 28 30 23 23 24 23 22 20 17 14 12 11 10 7 5 4 4 4 4 4 3 3 2 1 0 0 0 0 0 1 0 1 0 0 0 0 1 1 2 37
20 18 10 10 17 24 22 18 20 19 17 15 12 11 9 7 5 4 4 4 4 4 4 4 5 4 2 2 1 0 1 0 0 0 1 1 1 1 1 1 0 2 1
CIN
-41 -51 -38 -36 -34 -27 -13 -15 -3 0 0 0 0 -1 0 0 0 0 0 0 0 0 0 0 0 0 0 0 0 0 0 0 0 -9 -15 -10 -11 -9 -24 -37 -61 -71 -91
-44 -35 -43 -24 -28 -23 -32 -20 -9 -2 0 0 0 -1 0 0 0 0 0 0 0 0 0 0 0 0 0 -4 0 -1 0 0 0 0 -2 -30 -10 -21 -26 -32 -68 -65 -73
-50 -73 -63 -55 -40 -40 -27 -27 -17 -12 -8 -1 0 0 0 0 0 0 0 0 0 0 0 0 0 0 0 0 0 0 0 0 -1 -8 -24 -41 -26 -21 -19 -15 -48 -60 -78
-8 -39 -74 -66 -80 -82 -41 -29 -28 -27 -19 -15 -6 0 0 0 0 0 0 0 0 0 0 0 0 0 0 0 0 0 0 0 0 -9 -23 -23 -23 -13 -17 -42 -69 -76 -80
-9 -12 -24 -37 -57 -57 -90 -50 -29 -18 -26 -28 -22 -11 -2 0 0 0 0 0 0 0 0 0 0 -1 -11 -9 0 0 0 0 0 -7 -10 -16 -21 -15 -4 -63 -73 -84 -72
-1 -7 -5 -15 -19 -29 -46 -117 -31 -20 -16 -14 -19 -29 -25 -8 -6 -11 -7 0 0 0 0 0 0 -21 -40 -57 -72 -80 -65 0 0 -22 -59 -50 -2 -13 -42 -63 -80 -94 -100
-51 0 -8 -7 -2 -6 -13 -13 -33 -35 -18 -9 -17 -15 -15 -28 -76 -125 -128 -15 0 0 0 0 0 0 -14 -3 -207 -261 -382 -430 -331 -17 0 -2 0 -7 0 -3 0 -18 -32
0 0 -79 -36 -6 0 0 0 -7 -14 -17 -19 -20 -11 -18 -24 -94 -217 -243 -57 -12 -2 0 0 0 0 0 -2 -3 0 -2 -8 -52 -83 -48 -32 -11 -6 -1 0 0 0 -13
0 0 0 0 -191 -34 0 0 0 0 -1 -11 -18 -19 -11 -25 -138 -312 0 -65 -51 -14 -8 0 0 0 -4 -27 -5 0 0 0 -48 -31 -52 -69 -122 -152 -143 -20 -27 -21 -59
0 -1 0 0 0 0 -63 0 -2 0 0 0 -1 -8 -34 -27 -73 -321 0 -69 -41 -51 -11 0 -64 -55 -45 -87 -12 0 0 -2 -37 -35 -21 -190 -452 -161 -414 -166 -30 -18 -37
0 0 0 0 0 -1 0 -135 0 0 0 0 0 0 0 -18 -40 -304 0 -103 -56 -34 -36 -24 -47 -247 -310 -368 -322 -1 -20 -33 -47 -50 -69 -73 -71 -74 -29 -51 -45 -32 -28
0 0 0 0 0 0 0 -164 -191 -16 -7 0 0 0 0 0 -49 -105 0 -15 -154 -42 -19 -9 -8 -60 -1 0 0 -368 -219 -314 -97 -226 -244 -211 -152 -112 -107 -30 -1 -6 -17
0 0 0 0 0 0 0 0 -133 -80 -24 0 0 0 0 0 0 -98 -375 0 0 -170 -56 -42 -41 -309 -39 0 0 -59 0 -195 -138 -137 -159 -148 -129 -110 -8 -1 0 0 0
0 0 0 0 0 0 0 0 0 0 -112 -84 -20 -4 -3 -3 -3 0 -87 -422 -34 -42 -49 -318 -171 -136 -152 -136 -156 -33 -419 -142 -117 -84 -112 -139 -100 -86 -65 -35 -30 -18 -4
0 0 0 0 0 0 0 0 0 0 0 0 -21 -120 -60 -3 -2 0 -251 -41 -4 -99 -150 -89 -73 -67 -53 -37 -42 -53 -48 -89 -105 -74 -44 -45 -38 -28 -23 -21 -12 -12 -6
0 0 0 0 0 0 0 0 0 0 0 0 0 0 0 0 0 0 0 0 0 -210 -125 -28 -19 -9 -7 -3 -2 -6 -17 -48 -30 -39 -39 -39 -41 -28 -23 -20 -13 -10 -8
0 0 0 0 0 0 0 0 0 0 0 0 0 0 0 0 0 0 0 0 0 0 -24 -1 -5 -3 0 0 -2 -5 -5 -6 -1 -7 0 -3 -18 -33 -26 -31 -26 -5 -2
0 0 0 0 0 0 0 0 0 0 0 0 0 0 0 0 0 0 0 0 0 0 -99 -24 -8 0 -2 -17 -40 -11 -6 -6 -2 -5 -33 -23 -3 -20 -31 -19 -18 -8 -2
0 0 0 0 0 -2 0 0 0 0 0 0 0 0 0 0 0 0 0 0 -310 -50 -166 -35 -45 -15 -1 -1 0 -1 0 0 0 0 -6 -3 0 -7 -35 -24 -7 -34 -5
0 0 0 0 0 0 0 0 0 0 0 0 0 0 0 0 -74 -80 0 0 0 -114 -14 -24 -43 -22 -3 -1 0 0 0 -2 0 0 0 0 0 0 0 -2 0 0 -1
0 0 0 0 0 0 0 0 0 0 0 0 0 0 0 0 0 0 -147 -74 -142 -77 -24 -6 -1 0 -6 0 0 0 -1 0 0 0 0 0 0 0 0 -2 -3 0 0
0 0 0 -1 -1 0 0 0 0 0 0 0 0 0 0 0 0 0 0 -156 -95 -97 -23 -74 -67 -42 -59 -62 -37 0 -1 -1 0 -2 -2 0 0 0 0 0 0 -2 -6
0 0 0 0 0 0 0 -1 0 -1 0 0 0 0 0 0 0 0 0 -68 -59 0 0 0 0 0 0 0 0 0 0 -33 -10 -48 -52 0 0 -1 -9 -70 -106 -180 -172
0 0 0 0 0 0 0 0 0 0 0 0 0 0 0 0 0 0 0 0 0 0 0 0 0 0 0 0 0 0 0 0 0 0 0 0 -57 -414 -308 -48 -328 -56 -15
0 0 0 0 0 0 0 0 0 0 0 0 0 0 0 0 0 0 0 0 0 0 0 0 0 0 0 0 0 0 0 0 0 0 0 0 0 0 0 0 0 0 -112
0 0 0 0 0 0 0 0 0 0 0 0 0 0 0 0 0 0 0 0 0 0 0 0 0 0 0 0 0 0 0 0 0 0 0 0 0 0 0 0 0 0 0
Wind_Speed
15 14 15 15 15 13 13 12 12 11 10 10 10 10 10 10 9 9 8 5 7 7 7 6 8 7 7 6 5 5 5 5 7 6 7 4 6 7 9 9 10 10 5
11 11 13 11 13 14 13 13 12 12 12 11 11 9 10 11 10 10 10 8 8 9 8 8 8 7 8 8 7 7 7 6 7 8 7 8 5 6 7 9 8 9 8
11 12 13 14 14 15 14 13 13 12 13 13 12 11 10 12 12 12 11 11 10 11 10 9 9 9 9 9 7 7 8 7 7 8 8 8 6 7 6 8 8 7 9
10 12 12 14 15 15 16 14 14 13 13 14 14 13 12 11 12 13 13 12 12 11 11 11 10 10 10 10 9 9 8 8 8 8 9 8 7 5 6 8 8 8 8
9 10 11 12 12 14 14 16 15 14 14 14 14 15 14 13 11 13 13 13 13 12 11 11 12 12 11 11 9 9 8 9 9 9 8 8 8 6 7 8 9 8 8
10 10 11 10 11 12 13 12 15 15 15 15 15 16 16 13 13 11 12 13 13 12 12 12 13 11 12 11 12 13 11 10 10 10 9 9 7 8 8 8 9 10 10
14 8 9 12 11 11 12 13 14 15 15 15 16 16 16 16 13 13 15 16 15 14 13 13 13 12 14 15 16 16 14 14 14 12 12 11 11 9 9 9 9 9 10
12 13 15 12 10 9 9 12 14 13 14 14 15 16 16 15 14 17 16 17 16 17 16 15 15 15 13 14 15 15 15 15 15 12 15 15 13 11 10 10 9 10 10
10 11 12 10 14 12 11 10 10 10 12 14 14 16 16 16 13 16 14 17 17 18 17 17 17 17 16 13 16 15 14 14 12 16 15 14 11 9 9 9 10 10 11
13 9 8 12 9 12 13 13 11 12 12 11 14 15 16 17 13 15 16 13 16 15 15 17 17 20 15 15 17 17 16 16 15 15 12 14 14 15 15 14 12 12 11
13 13 13 10 11 10 9 11 13 12 12 12 14 13 14 16 17 15 17 16 14 14 15 14 15 21 22 16 17 18 18 14 14 13 14 13 13 14 13 13 14 13 13
12 13 13 13 10 8 11 9 11 11 9 11 12 11 12 14 16 13 18 22 16 15 15 14 14 12 18 21 18 20 14 10 14 15 14 14 13 13 13 12 13 13 12
13 13 12 13 12 11 12 10 8 10 11 9 6 7 10 13 14 20 20 21 21 17 15 14 11 3 9 13 16 11 14 13 15 15 15 14 14 13 11 10 9 11 12
14 14 13 12 11 11 10 10 8 8 7 11 9 6 8 10 12 11 11 11 15 13 18 17 15 13 12 12 10 12 12 14 14 14 14 13 12 13 12 12 12 12 13
15 13 13 12 11 11 10 9 10 12 9 9 11 11 9 11 12 12 13 9 8 11 11 12 13 14 15 14 13 14 13 13 14 14 14 13 13 12 12 12 12 12 13
12 12 11 10 11 10 11 11 10 12 11 14 17 13 11 17 19 21 21 18 17 8 8 11 14 14 15 14 13 13 14 14 13 13 14 13 13 13 13 12 12 13 13
12 14 12 12 11 12 12 12 13 12 10 12 15 15 16 20 18 20 20 17 15 7 12 10 13 13 13 11 8 10 13 13 11 13 13 13 13 13 12 13 13 13 14
13 15 12 12 13 13 12 12 12 13 14 13 10 12 12 14 17 17 15 9 5 6 11 13 14 12 11 10 10 13 13 13 12 12 13 15 14 13 13 14 14 14 14
15 12 13 13 12 12 12 14 13 13 14 15 12 12 11 11 13 11 5 6 7 13 11 15 14 14 10 10 10 13 13 12 11 11 12 13 13 13 14 14 14 14 14
13 20 18 13 14 14 13 13 12 12 13 14 13 12 12 11 12 11 4 5 7 12 13 14 11 13 12 10 11 12 12 12 13 12 11 10 11 10 13 14 14 14 10
12 12 19 16 15 14 12 12 12 13 13 13 14 13 10 12 14 14 13 8 9 11 13 13 11 11 11 12 11 11 12 12 13 11 11 10 10 10 11 12 11 10 10
11 11 11 12 12 12 14 13 13 12 13 13 14 14 10 12 13 13 14 13 12 9 8 8 6 4 5 6 7 10 11 11 11 10 10 10 10 10 10 10 10 9 8
11 11 11 10 11 13 13 14 14 13 13 14 14 12 12 12 12 11 12 10 6 3 4 6 5 4 3 4 4 4 5 5 4 4 8 10 10 10 9 8 8 7 8
11 12 11 11 10 11 12 11 12 13 12 12 12 11 9 9 9 9 7 5 4 3 3 3 4 4 3 3 3 4 5 4 5 5 5 4 2 2 4 6 7 9 9
10 10 11 10 9 9 10 10 10 11 10 9 8 8 8 7 7 5 3 2 2 3 5 4 3 3 6 5 3 3 7 9 7 6 2 2 3 3 2 3 3 4 7
8 9 9 9 8 8 7 7 8 7 8 7 6 7 5 4 2 1 1 2 3 4 5 5 6 8 9 7 7 8 5 7 2 5 5 5 5 5 4 5 8 6 8
Wind_Direction
209 217 216 211 213 213 222 221 225 235 233 229 217 216 216 215 215 212 230 238 206 221 251 231 227 250 260 244 237 254 261 260 280 300 325 310 325 303 323 322 301 298 324
222 215 221 220 219 215 219 224 222 225 226 225 224 216 218 217 219 218 223 218 217 226 228 232 233 228 226 243 257 258 281 295 283 293 297 289 281 310 300 305 307 311 334
213 223 222 221 220 226 218 223 221 223 227 228 226 222 220 223 218 217 226 228 227 231 234 230 235 230 234 258 233 264 235 230 241 261 288 282 295 290 312 285 283 306 290
221 202 217 226 222 224 226 219 220 219 226 229 227 232 230 227 226 230 221 226 234 232 231 233 233 233 233 234 238 239 250 266 257 255 264 275 276 291 271 290 308 309 326
297 254 227 225 227 234 224 230 225 222 220 227 227 226 231 236 230 221 230 227 230 236 236 230 229 235 235 240 246 227 257 247 254 261 266 270 275 302 324 308 299 312 302
297 276 282 252 233 231 234 239 233 227 227 227 228 226 225 229 230 210 233 234 235 241 242 235 239 209 223 228 236 258 274 255 255 276 280 280 293 274 276 292 311 304 305
351 299 264 275 267 246 241 237 229 230 232 229 233 232 229 228 216 203 205 235 247 237 240 246 242 232 213 233 220 231 245 248 247 261 264 268 281 276 279 281 277 298 291
7 2 356 342 286 268 257 248 241 235 232 232 233 234 236 233 214 206 201 229 236 245 247 241 242 253 244 225 236 236 229 231 227 234 240 256 258 259 263 263 272 278 267
9 360 349 340 330 323 265 252 250 241 237 235 234 236 236 240 214 208 199 231 237 240 242 238 238 239 236 217 239 245 245 247 231 215 232 248 253 269 272 286 271 270 275
352 345 336 334 334 334 327 307 264 245 238 244 240 237 237 246 224 204 202 234 236 238 234 236 230 238 229 205 226 238 244 244 249 262 227 244 248 244 224 235 249 254 264
339 337 341 339 326 324 326 320 309 272 254 240 240 247 252 244 240 206 200 227 232 234 240 241 236 211 221 217 216 236 241 250 245 247 253 254 251 244 234 206 223 245 258
326 326 330 332 328 318 315 308 309 291 290 264 256 259 251 245 229 213 198 213 239 243 244 247 245 217 204 213 212 231 248 256 255 257 257 254 253 249 247 233 210 223 249
311 313 317 318 317 323 312 302 297 308 303 239 238 254 259 251 243 205 195 204 220 238 249 247 268 268 210 213 227 228 220 240 247 249 248 249 252 256 261 255 230 238 245
298 299 304 308 313 304 317 304 301 294 298 306 300 281 270 257 274 251 206 212 225 219 238 258 259 263 270 266 236 210 232 237 235 238 241 247 250 249 247 240 251 245 236
289 286 295 293 300 309 295 303 306 299 305 305 307 301 309 303 285 336 327 311 221 223 241 234 241 237 236 238 233 236 229 220 231 240 247 245 244 247 245 248 248 243 247
293 289 288 303 291 298 297 294 259 238 265 261 261 262 295 275 287 294 300 287 279 222 212 236 235 235 235 234 233 234 233 233 232 228 237 241 245 246 244 242 245 244 246
300 294 289 280 282 296 290 292 296 292 257 274 265 247 239 260 278 274 283 288 269 227 232 238 245 245 245 239 232 241 249 244 250 253 250 241 239 243 239 247 244 238 241
287 283 277 274 275 276 281 288 291 294 297 298 290 282 276 246 254 260 261 239 261 224 238 236 238 244 238 234 231 241 236 235 234 225 231 246 246 242 243 240 240 241 245
292 283 278 277 274 277 285 282 279 283 286 287 290 282 264 254 262 265 185 229 259 251 215 241 233 242 237 232 234 235 236 233 230 229 236 239 251 244 242 244 247 243 247
289 281 273 273 274 270 267 267 271 268 270 275 282 283 290 292 289 286 230 242 232 257 251 237 241 240 240 239 235 237 249 254 243 235 236 242 242 244 252 246 247 251 245
300 287 275 274 270 270 264 261 262 267 267 266 269 275 299 295 285 288 284 263 229 247 256 252 238 241 232 233 240 241 241 239 240 242 242 236 233 240 239 245 256 249 243
291 281 275 277 283 278 267 261 257 260 262 265 269 274 267 271 270 269 271 269 264 290 265 260 273 302 320 289 265 243 240 237 234 235 237 234 230 231 235 237 234 237 237
301 296 292 286 278 272 265 264 263 259 261 265 270 273 275 276 277 281 292 300 304 326 333 321 313 308 340 357 357 342 305 291 294 299 250 236 232 229 225 217 221 221 224
315 309 297 286 280 274 270 269 269 266 262 266 269 268 267 267 278 280 286 302 315 347 5 348 360 353 358 3 3 322 288 297 293 280 284 279 266 219 224 226 215 217 227
323 316 310 303 288 280 276 270 268 266 268 264 263 262 265 264 264 271 290 335 26 50 49 49 22 33 45 36 20 356 329 309 254 249 207 133 119 73 58 46 358 305 260
328 326 325 319 316 306 289 279 273 269 267 267 262 260 250 231 218 181 115 96 83 75 75 66 71 73 70 52 32 10 9 7 56 107 126 113 111 97 74 73 72 68 48